Погода в Пхалаборве

ЮАР     23°56′35″S   31°07′44″E
темп.,
°C
ветер,
м/с
пор.,
м/с
влажн.,
%
обл.,
%
осадки,
мм/ч
давл.,
гПа
погр.,
м
3 марта, ср
ср323:00+20юв27870 0.0 1016351
02:00+19ю25920 0.0 1016209
05:00+18ю23940 0.0 1015110
08:00+22ююз23750 0.0 1015481
11:00+28ююв22480 0.0 10141364
14:00+32юв23350 0.0 10112035
17:00+30вюв43380 0.0 10091908
20:00+24вюв38560 0.0 1012249
4 марта, чт
чт423:00+22вюв25750 0.0 1013199
02:00+20ююв24860 0.0 1012153
05:00+19ю12900 0.0 101235
08:00+23ю22720 0.0 1013387
11:00+29ююв23440 0.0 10121417
14:00+32юв23280 0.0 10082032
17:00+31вюв44300 0.0 10081859
20:00+24вюв38490 0.0 1011204
5 марта, пт
пт523:00+22юв26890 0.0 1013315
02:00+20ю259419 0.0 1012197
05:00+19ююв129526 0.0 101261
08:00+23ю127413 0.0 1013449
11:00+29юв23440 0.0 10131275
14:00+33юв45280 0.0 10112072
17:00+31юв56340 0.0 10101854
20:00+25вюв511600 0.0 1013498
6 марта, сб
сб623:00+23вюв38850 0.0 1016519
02:00+21ююв26934 0.0 1016355
05:00+20ююв249836 0.0 1016146
08:00+24ююв247427 0.0 1017599
11:00+29юв344512 0.0 10161552
14:00+33вюв33346 0.0 10132042
17:00+31вюв43390 0.0 10121493
20:00+25в38580 0.0 1014244
7 марта, вс
вс723:00+23в37720 0.0 1016322
02:00+21вюв12840 0.0 101581
05:00+20зсз00890 0.0 101523
08:00+24ссз23710 0.0 1015495
11:00+31ссз22460 0.0 10131162
14:00+34ссв22340 0.0 10091712
17:00+33св32356 0.0 10091544
20:00+28всв38548 0.0 1011279